FW3668 Weather Reports


Display with metric or nautical units.
time (UTC)temp
F
wind
direction
speed
MPH
gust
MPH
rain 1hr
in
rain 24hr
in
rain mn
in
humidity
%
barometer
mb
20260507231510 51 231 1.0 7.0 0.00 1.40 1.40 98 1002.7
20260507230008 52 207 3.0 5.0 0.00 1.40 1.40 98 1002.9
20260507224510 52 234 1.0 4.0 0.00 1.40 1.40 98 1002.8
20260507223008 52 252 2.0 10.0 0.00 1.40 1.40 98 1002.9
20260507221507 51 238 1.0 5.0 0.00 1.40 1.40 97 1002.9
20260507220006 52 225 2.0 7.0 0.01 1.40 1.40 97 1003.3
20260507214505 52 219 2.0 7.0 0.01 1.40 1.40 97 1003.2
20260507213014 51 290 2.0 8.0 0.03 1.40 1.40 97 1003.2
20260507211504 51 265 6.0 14.0 0.08 1.40 1.40 97 1002.9
20260507210007 51 145 8.0 16.0 0.14 1.39 1.39 97 1001.8
20260507204611 51 135 9.0 17.0 0.23 1.39 1.39 97 1002.5
20260507203102 51 126 5.0 16.0 0.34 1.37 1.37 96 1003.4
20260507201555 51 137 7.0 16.0 0.46 1.32 1.32 97 1003.7
20260507200104 51 200 11.0 19.0 0.54 1.26 1.26 96 1004.0
20260507194549 51 131 9.0 18.0 0.55 1.17 1.17 97 1004.4
20260507193108 51 207 8.0 17.0 0.52 1.03 1.03 98 1005.3
20260507191554 50 218 6.0 12.0 0.52 0.86 0.86 97 1005.8
20260507190043 50 225 3.0 14.0 0.43 0.72 0.72 96 1005.5
20260507184541 53 271 5.0 15.0 0.34 0.61 0.61 97 1005.6
20260507183049 54 211 7.0 18.0 0.24 0.51 0.51 96 1005.8
20260507181539 55 193 11.0 20.0 0.06 0.33 0.33 95 1005.8
20260507180039 55 175 9.0 25.0 0.02 0.28 0.28 94 1004.9
20260507174538 56 136 11.0 22.0 0.00 0.28 0.28 92 1004.9
20260507173040 56 225 11.0 22.0 0.00 0.28 0.28 92 1004.9
20260507171534 56 166 9.0 19.0 0.00 0.28 0.28 93 1005.6
20260507170036 56 158 8.0 21.0 0.00 0.28 0.28 94 1005.9
20260507164531 56 208 8.0 20.0 0.00 0.28 0.28 94 1006.3
20260507163036 56 175 10.0 19.0 0.00 0.28 0.28 93 1006.6
20260507161527 55 163 10.0 21.0 0.00 0.28 0.28 94 1007.2
20260507160034 55 154 11.0 23.0 0.00 0.28 0.28 94 1007.9
20260507154522 55 182 15.0 26.0 0.00 0.28 0.28 94 1008.4
20260507153022 55 154 12.0 25.0 0.00 0.28 0.28 93 1008.4
20260507151521 56 199 11.0 22.0 0.00 0.28 0.28 94 1008.9
20260507150019 56 207 10.0 22.0 0.00 0.28 0.28 93 1009.0
20260507144525 56 190 11.0 25.0 0.00 0.28 0.28 93 1009.1
20260507143013 56 202 10.0 21.0 0.00 0.28 0.28 94 1009.3
20260507141511 55 229 10.0 24.0 0.00 0.28 0.28 94 1009.9
20260507140010 55 119 14.0 25.0 0.00 0.28 0.28 94 1010.2
20260507134508 55 192 7.0 20.0 0.00 0.28 0.28 94 1010.7
20260507133011 56 188 8.0 23.0 0.00 0.28 0.28 94 1010.5
20260507131506 56 219 10.0 19.0 0.01 0.28 0.28 94 1010.3
20260507130015 56 205 7.0 22.0 0.01 0.28 0.28 95 1010.6
20260507124504 56 267 8.0 20.0 0.02 0.28 0.28 96 1010.3
20260507123100 55 169 6.0 12.0 0.02 0.28 0.28 96 1010.6
20260507121557 54 161 8.0 16.0 0.02 0.27 0.27 96 1010.7
20260507120053 54 202 9.0 19.0 0.02 0.27 0.27 96 1011.7
20260507114557 54 169 10.0 24.0 0.06 0.25 0.25 96 1011.7
20260507113051 54 188 11.0 23.0 0.13 0.24 0.24 97 1012.2
20260507111558 53 164 9.0 27.0 0.13 0.24 0.24 97 1012.4
20260507110049 53 180 9.0 23.0 0.14 0.24 0.24 97 1012.3
20260507104547 53 153 8.0 17.0 0.13 0.20 0.20 96 1012.6
20260507103045 53 226 10.0 19.0 0.05 0.12 0.12 96 1012.6
20260507101558 53 153 8.0 17.0 0.06 0.12 0.12 96 1013.0
20260507100043 54 207 6.0 14.0 0.05 0.10 0.10 96 1012.6
20260507094544 54 173 7.0 19.0 0.02 0.07 0.07 97 1012.6
20260507093045 54 155 6.0 16.0 0.03 0.07 0.07 97 1012.8
20260507091539 54 185 9.0 17.0 0.03 0.06 0.06 98 1012.9
20260507090038 53 180 9.0 17.0 0.02 0.06 0.06 97 1013.0
20260507084540 53 198 7.0 22.0 0.02 0.05 0.05 98 1013.2
20260507083036 50 171 3.0 8.0 0.03 0.04 0.04 99 1013.1
20260507081536 52 246 4.0 12.0 0.03 0.03 0.03 97 1013.4
20260507080030 51 215 5.0 12.0 0.03 0.03 0.03 98 1013.6
20260507074526 50 244 1.0 7.0 0.02 0.02 0.02 97 1013.5
20260507073023 51 170 5.0 18.0 0.01 0.01 0.01 98 1014.2
20260507071525 52 220 6.0 17.0 0.00 0.00 0.00 97 1014.1
20260507070017 52 188 8.0 18.0 0.00 0.00 0.00 97 1014.4
20260507064516 52 151 6.0 13.0 0.00 0.00 0.00 98 1014.4
20260507063010 52 108 5.0 10.0 0.00 0.00 0.00 98 1014.5
20260507061509 52 173 7.0 14.0 0.00 0.00 0.00 98 1014.8
20260507060011 52 209 6.0 14.0 0.00 0.00 0.00 98 1015.1
20260507054504 52 185 4.0 12.0 0.00 0.00 0.00 98 1015.3
20260507053001 52 137 4.0 10.0 0.00 0.00 0.00 98 1015.6
20260507051559 52 217 5.0 10.0 0.00 0.00 0.00 98 1015.8
20260507050100 52 213 3.0 8.0 0.00 0.00 0.00 97 1016.2
20260507044555 52 211 2.0 6.0 0.00 0.00 0.00 97 1016.4
20260507043100 52 199 1.0 7.0 0.00 0.00 0.00 97 1016.6
20260507041602 52 201 1.0 7.0 0.00 0.00 0.00 97 1017.0
20260507040055 53 251 1.0 8.0 0.00 0.00 0.00 97 1017.2
20260507034550 53 265 3.0 10.0 0.00 0.00 0.00 97 1017.3
20260507033046 53 183 4.0 10.0 0.00 0.00 0.00 97 1017.6
20260507031542 53 165 3.0 13.0 0.00 0.00 0.00 97 1018.0
20260507030040 52 250 3.0 9.0 0.00 0.00 0.00 96 1018.1
20260507024538 53 234 3.0 19.0 0.00 0.00 0.00 96 1018.2
20260507023037 53 178 8.0 16.0 0.00 0.00 0.00 95 1018.2
20260507021536 53 167 7.0 19.0 0.00 0.00 0.00 95 1018.2
20260507020036 53 180 10.0 19.0 0.00 0.00 0.00 94 1018.3
20260507014549 54 152 9.0 16.0 0.00 0.00 0.00 93 1018.5
20260507013043 54 217 10.0 22.0 0.00 0.00 0.00 94 1018.5
20260507011539 54 213 7.0 16.0 0.00 0.00 0.00 94 1018.8
20260507010034 52 179 6.0 11.0 0.00 0.00 0.00 96 1019.1
20260507004531 49 207 0.0 1.0 0.00 0.00 0.00 93 1019.2
20260507003030 50 207 0.0 3.0 0.00 0.00 0.00 93 1019.3
20260507001528 51 207 0.0 3.0 0.00 0.00 0.00 93 1019.3
20260507000030 51 205 1.0 5.0 0.00 0.00 0.00 93 1019.4
20260506234526 51 234 4.0 7.0 0.00 0.00 0.00 91 1019.3
20260506233025 51 262 2.0 5.0 0.00 0.00 0.00 89 1019.1